Wind_Speed
32 33 33 33 33 33 33 33 33 34 34 35 34 34 35 35 35 35 35 35 35 35 34 34 34 34 34 34 34 34 34 34 34 34 34 34 33 33 33 32 32 32 32
33 33 33 34 35 35 35 35 35 35 35 36 36 36 36 36 36 36 37 37 37 37 36 36 37 36 36 36 36 36 36 35 35 35 35 35 35 35 34 35 35 34 34
34 35 35 36 36 36 37 37 37 37 37 38 38 37 37 38 37 38 38 38 38 38 39 39 39 39 38 38 38 38 38 38 37 37 37 36 36 36 36 36 36 36 35
35 36 36 37 37 37 38 39 39 38 38 39 39 39 39 39 39 40 39 39 39 40 41 41 41 41 40 40 40 39 39 39 38 38 38 38 37 37 37 37 37 37 37
36 37 38 38 39 39 39 40 41 40 39 39 40 41 41 41 41 42 41 42 41 41 42 42 42 42 42 42 42 41 41 41 40 39 39 39 39 39 38 38 39 38 38
36 37 38 39 40 40 40 40 40 41 40 41 41 41 41 42 43 43 43 44 43 43 44 44 44 43 43 43 42 42 42 42 41 41 41 41 41 40 40 40 40 39 39
37 38 38 39 40 40 40 40 39 40 40 41 41 41 42 43 43 44 45 44 44 44 45 45 46 45 45 45 44 44 43 43 42 42 42 42 42 42 42 41 41 40 40
38 39 39 38 39 40 39 40 40 40 41 41 41 42 42 41 42 43 44 44 45 45 45 45 46 46 46 46 45 45 44 44 44 44 43 43 43 43 44 43 43 43 43
37 38 39 39 39 40 40 40 40 41 42 41 41 42 41 41 40 41 43 43 44 44 44 44 45 46 46 47 46 45 45 46 46 45 44 44 44 44 45 44 45 44 44
36 37 38 38 38 39 40 40 40 41 42 42 42 42 42 41 41 40 41 42 43 44 44 43 44 45 45 45 46 45 45 45 45 45 45 45 45 45 45 45 45 45 45
35 36 37 37 37 38 39 39 40 40 41 41 42 42 42 42 42 41 40 39 40 42 43 43 44 44 44 44 45 46 46 46 47 47 47 47 45 45 44 45 44 45 45
35 35 36 37 37 38 38 39 39 39 40 40 41 41 41 41 42 42 41 41 41 41 42 43 42 43 43 44 45 45 45 45 46 46 47 47 46 46 46 46 47 47 47
35 35 36 37 37 37 37 38 38 39 39 39 39 40 41 41 41 41 41 41 40 40 40 40 41 42 44 44 45 45 45 45 45 45 45 46 46 46 47 47 47 47 47
37 37 36 36 36 37 37 37 37 38 38 38 39 40 40 40 40 40 41 41 40 39 39 39 40 41 41 43 43 44 45 46 46 47 47 47 47 47 47 48 49 50 49
37 37 36 36 36 37 37 37 36 36 37 38 38 38 39 39 40 40 40 41 41 40 40 40 40 41 41 42 42 43 43 44 46 47 48 48 48 48 49 49 49 50 50
37 37 37 37 37 37 36 36 37 37 37 38 38 38 38 39 39 40 40 40 40 41 41 40 40 40 41 42 43 44 45 45 46 47 48 49 49 50 50 50 50 51 50
38 38 37 37 37 36 36 36 36 36 36 36 36 37 38 39 40 40 40 40 40 40 40 39 40 40 42 42 43 44 45 47 47 47 48 49 50 51 51 52 52 52 51
38 38 37 37 37 36 36 36 36 36 36 37 37 37 38 38 39 39 40 40 40 40 40 40 40 40 41 42 43 44 45 46 47 48 49 50 51 51 51 51 52 51 51
38 38 38 38 37 37 36 36 36 36 36 36 36 37 37 37 38 38 39 40 40 41 41 41 41 41 41 42 43 44 45 46 47 48 49 50 50 51 51 51 51 50 50
38 38 38 38 37 37 37 37 36 36 36 35 35 36 36 37 38 38 39 39 40 40 41 41 42 42 43 43 44 45 45 46 47 49 49 50 50 51 51 51 51 51 51
38 38 38 37 37 37 37 37 37 36 36 35 35 36 36 37 37 37 38 39 39 40 41 42 43 44 45 45 45 46 46 46 46 47 48 48 49 51 51 51 52 52 52
37 37 37 36 36 36 37 37 36 35 35 35 36 36 36 36 36 37 37 37 38 39 40 41 43 44 44 44 45 45 45 45 45 45 47 47 48 49 51 52 53 54 54
36 35 35 36 36 36 36 36 35 35 35 35 35 35 36 36 36 35 36 37 38 39 40 41 41 42 43 43 44 44 45 44 44 45 46 46 47 48 50 51 53 54 54
35 35 35 34 35 35 35 34 35 35 35 35 35 36 35 35 35 36 36 37 37 38 39 40 41 41 42 43 44 44 44 44 44 45 45 46 47 48 49 51 52 52 53
35 35 34 34 33 34 34 34 34 34 34 34 35 35 35 35 36 37 37 37 37 38 39 40 40 41 42 43 43 43 43 43 43 44 46 47 48 48 48 49 50 51 51
34 34 34 34 33 33 33 34 34 34 34 34 34 34 35 35 35 36 36 37 37 38 38 39 40 41 42 42 42 43 43 44 44 45 46 47 48 48 47 47 48 49 50
Wind_Direction
271 272 273 274 274 274 274 274 274 274 274 274 274 274 275 274 274 274 274 275 274 275 275 275 275 276 276 276 276 277 278 278 278 279 280 281 282 282 283 285 285 286 286
271 273 274 275 275 275 275 275 275 274 274 274 274 274 275 275 275 274 274 274 274 274 274 274 275 276 275 275 276 276 277 277 278 278 279 280 280 281 282 283 284 285 286
272 273 275 276 276 277 276 275 275 275 274 273 274 274 275 275 275 276 275 275 275 274 274 274 274 275 275 274 275 276 276 276 277 278 279 279 279 280 281 282 283 284 284
273 274 275 275 276 276 276 275 275 275 274 274 274 274 275 275 275 276 276 276 276 275 274 273 273 273 274 275 275 276 276 276 276 276 278 278 279 279 280 281 282 283 284
274 275 275 275 276 276 275 275 274 274 274 274 274 274 274 274 275 275 275 276 276 275 275 273 273 272 273 274 274 275 275 275 275 275 276 277 278 278 279 279 280 281 282
276 276 276 276 276 276 275 275 274 273 274 275 275 275 274 273 273 274 275 276 275 275 274 272 272 272 272 273 273 273 274 274 274 274 275 275 276 277 278 279 279 280 280
277 277 277 276 275 276 276 275 276 275 275 274 274 274 275 275 275 276 275 274 274 273 273 273 272 272 272 272 271 272 273 273 273 274 275 275 275 276 277 278 278 279 280
278 278 278 277 276 276 276 276 276 276 276 275 275 274 275 278 278 277 276 274 274 273 273 273 274 273 271 270 270 270 270 271 271 273 274 274 275 275 276 276 278 279 280
278 279 278 278 277 277 276 277 277 276 276 275 276 276 276 277 277 277 277 276 275 274 274 274 274 273 272 271 270 269 270 270 270 271 273 274 275 275 276 276 277 278 279
279 281 280 280 279 279 278 278 279 279 278 276 276 276 277 278 279 278 278 277 276 275 274 274 274 274 273 271 269 270 269 270 271 271 272 273 275 275 276 276 277 277 279
281 282 281 280 280 280 280 279 279 279 279 278 277 278 278 279 280 280 279 277 277 278 277 276 275 273 272 271 271 271 270 271 271 272 272 272 274 274 274 275 276 277 278
282 283 282 281 281 281 281 280 279 279 279 279 279 279 280 280 281 281 280 278 279 280 279 276 275 273 272 272 272 272 272 272 272 272 272 272 274 273 273 274 276 276 277
283 284 284 283 282 283 282 282 281 280 279 279 279 280 282 282 282 282 281 280 280 281 279 278 277 275 273 273 273 272 272 272 272 272 272 273 273 274 274 275 276 277 277
282 284 285 284 284 284 284 283 282 281 280 281 281 281 281 281 281 281 282 280 280 280 279 281 279 277 276 275 274 273 272 272 272 271 272 273 274 275 276 276 276 277 277
283 285 286 285 285 284 285 285 284 282 282 282 282 281 281 281 281 281 282 282 280 279 280 281 280 279 276 276 275 274 273 271 272 272 272 273 274 274 276 275 275 276 276
283 284 285 286 286 285 285 284 284 284 283 282 282 281 281 281 282 282 282 282 281 279 279 279 279 279 278 277 275 276 275 274 274 274 273 274 274 275 275 276 276 276 276
283 284 284 285 285 285 284 284 284 285 284 283 283 282 282 282 283 282 281 281 280 281 279 278 279 279 279 279 278 277 277 275 275 276 276 275 275 276 277 277 277 276 277
283 284 283 284 284 285 285 285 285 285 285 285 284 284 284 283 283 282 282 281 280 280 279 279 279 279 280 280 280 280 278 277 276 277 277 276 276 276 277 277 277 278 278
284 284 284 283 283 283 284 285 286 286 286 286 285 285 285 285 285 283 282 281 281 280 280 280 280 280 280 280 281 282 281 279 279 279 279 279 278 278 278 278 278 279 278
284 284 283 283 282 282 283 284 286 286 286 287 287 287 287 287 286 284 284 283 282 283 282 281 281 281 282 282 283 284 283 282 281 279 279 279 279 279 278 279 278 278 277
284 284 283 282 281 281 283 285 286 285 286 287 288 288 289 288 287 286 286 285 284 284 284 283 282 282 283 283 284 284 284 283 282 281 279 279 280 280 280 279 278 278 277
284 283 282 282 281 282 283 284 284 285 285 286 288 288 289 289 288 288 288 287 286 286 285 285 285 285 285 286 286 286 285 284 283 282 282 281 281 281 281 281 280 278 278
284 283 283 282 281 282 283 283 283 284 285 286 287 288 289 289 289 288 289 288 287 288 288 288 288 288 287 287 287 287 287 286 286 284 283 283 283 282 282 282 281 280 279
284 284 283 283 282 282 283 283 284 284 284 285 287 288 289 289 289 289 289 289 289 289 290 291 291 290 289 288 289 289 288 287 287 287 285 285 284 284 284 284 283 281 280
284 283 282 283 283 283 283 284 284 285 285 285 287 287 287 288 289 289 290 290 291 292 292 292 293 293 292 291 291 290 289 288 288 288 287 287 286 286 286 285 284 282 281
283 283 282 282 282 283 283 284 285 285 285 285 286 287 288 289 289 290 290 291 292 292 294 294 294 294 295 294 293 292 290 290 289 289 289 289 288 287 286 285 284 284 283
Height
5820 5821 5821 5820 5820 5820 5821 5821 5821 5821 5821 5821 5821 5821 5821 5821 5821 5821 5821 5821 5821 5821 5821 5820 5820 5820 5820 5819 5819 5819 5819 5818 5818 5817 5816 5816 5815 5814 5813 5812 5811 5810 5809
5813 5814 5814 5814 5813 5813 5813 5813 5813 5813 5813 5813 5813 5813 5813 5813 5812 5813 5813 5813 5813 5813 5813 5812 5812 5812 5812 5811 5811 5811 5811 5810 5810 5809 5809 5808 5807 5807 5806 5805 5804 5803 5802
5806 5806 5806 5806 5806 5805 5805 5805 5805 5805 5805 5805 5805 5805 5805 5805 5804 5804 5804 5804 5804 5804 5804 5804 5804 5803 5803 5803 5803 5802 5802 5802 5802 5801 5801 5800 5799 5799 5798 5797 5796 5795 5794
5799 5799 5798 5798 5797 5797 5797 5796 5796 5796 5796 5796 5796 5796 5796 5796 5796 5795 5795 5795 5795 5795 5794 5794 5794 5794 5794 5794 5794 5793 5793 5793 5793 5792 5792 5791 5791 5790 5789 5789 5788 5787 5786
5791 5790 5790 5789 5788 5788 5788 5787 5787 5787 5787 5787 5786 5786 5786 5786 5786 5786 5786 5785 5785 5784 5784 5784 5784 5784 5784 5784 5784 5784 5784 5783 5783 5783 5782 5782 5782 5781 5780 5780 5779 5778 5777
5783 5782 5781 5781 5780 5779 5778 5778 5777 5777 5777 5777 5777 5776 5776 5776 5775 5775 5775 5774 5774 5773 5772 5772 5772 5773 5773 5773 5773 5773 5773 5773 5773 5773 5773 5772 5772 5771 5771 5770 5769 5768 5768
5774 5773 5773 5772 5770 5769 5769 5768 5768 5767 5767 5767 5766 5766 5766 5765 5764 5764 5763 5763 5762 5761 5761 5760 5760 5761 5762 5762 5762 5762 5762 5762 5762 5762 5762 5762 5761 5761 5760 5760 5759 5759 5758
5766 5764 5763 5762 5761 5760 5759 5759 5758 5758 5757 5756 5756 5755 5755 5755 5753 5752 5751 5750 5750 5749 5749 5749 5748 5749 5750 5750 5751 5751 5751 5751 5751 5751 5751 5750 5750 5750 5750 5749 5749 5748 5747
5757 5755 5754 5752 5751 5750 5750 5749 5748 5747 5747 5745 5744 5744 5744 5744 5743 5742 5740 5739 5738 5737 5737 5737 5737 5738 5738 5739 5739 5739 5739 5739 5739 5739 5739 5739 5739 5739 5738 5738 5737 5737 5736
5748 5746 5744 5743 5742 5741 5740 5739 5738 5737 5736 5735 5734 5733 5733 5732 5732 5732 5730 5728 5727 5727 5726 5726 5726 5726 5726 5726 5727 5727 5727 5728 5728 5728 5728 5727 5727 5727 5727 5726 5726 5725 5724
5740 5738 5736 5734 5733 5732 5731 5730 5729 5727 5726 5725 5724 5723 5722 5721 5720 5720 5720 5719 5717 5716 5715 5715 5715 5715 5715 5715 5715 5715 5716 5716 5716 5716 5715 5715 5715 5715 5715 5715 5714 5713 5713
5731 5729 5727 5725 5724 5723 5721 5720 5719 5718 5717 5716 5714 5713 5712 5712 5710 5709 5708 5708 5707 5706 5704 5704 5704 5704 5704 5704 5704 5703 5703 5703 5703 5703 5703 5703 5703 5703 5703 5702 5702 5701 5701
5723 5721 5718 5717 5715 5713 5712 5711 5710 5709 5707 5706 5705 5704 5702 5702 5700 5699 5698 5697 5696 5696 5694 5693 5693 5692 5692 5692 5692 5691 5691 5691 5691 5691 5691 5691 5691 5690 5690 5690 5689 5688 5688
5715 5712 5710 5708 5706 5705 5703 5702 5700 5699 5698 5697 5696 5694 5693 5692 5690 5689 5688 5687 5686 5685 5684 5683 5682 5681 5681 5680 5680 5679 5679 5679 5679 5679 5678 5678 5678 5678 5677 5677 5676 5675 5675
5706 5704 5702 5700 5698 5696 5694 5693 5691 5690 5689 5687 5686 5684 5683 5682 5680 5679 5678 5676 5676 5675 5674 5673 5672 5670 5669 5668 5668 5667 5667 5666 5666 5666 5666 5666 5665 5665 5664 5663 5663 5662 5661
5697 5695 5693 5691 5689 5688 5686 5684 5683 5681 5679 5678 5677 5675 5673 5672 5670 5669 5667 5666 5664 5663 5663 5663 5661 5660 5658 5657 5656 5655 5655 5654 5654 5654 5653 5653 5652 5652 5651 5650 5649 5648 5647
5688 5686 5684 5682 5680 5679 5677 5675 5674 5672 5670 5668 5667 5665 5664 5662 5661 5659 5657 5656 5654 5652 5651 5652 5650 5649 5647 5646 5645 5643 5643 5642 5641 5641 5640 5639 5639 5638 5637 5636 5635 5633 5632
5679 5677 5675 5673 5672 5670 5668 5666 5665 5663 5661 5659 5657 5655 5654 5652 5650 5648 5647 5645 5643 5642 5640 5640 5639 5637 5636 5634 5633 5631 5630 5629 5628 5627 5627 5626 5625 5623 5622 5621 5620 5618 5617
5669 5667 5665 5664 5662 5661 5659 5657 5655 5653 5651 5649 5648 5646 5644 5642 5640 5638 5636 5634 5632 5630 5629 5628 5628 5626 5624 5623 5621 5619 5618 5616 5615 5614 5612 5611 5610 5608 5607 5606 5605 5604 5602
5659 5657 5655 5653 5652 5651 5649 5648 5646 5644 5642 5640 5638 5636 5634 5632 5630 5627 5625 5623 5621 5619 5617 5616 5615 5614 5612 5610 5608 5607 5605 5603 5601 5599 5598 5597 5595 5594 5593 5591 5590 5588 5587
5648 5646 5645 5643 5642 5641 5639 5638 5636 5634 5632 5630 5628 5626 5624 5621 5619 5617 5614 5612 5610 5608 5606 5604 5603 5602 5600 5597 5595 5593 5591 5589 5587 5585 5584 5583 5581 5579 5577 5575 5574 5572 5570
5638 5636 5634 5633 5632 5631 5629 5628 5626 5624 5622 5621 5619 5616 5614 5611 5609 5606 5603 5601 5599 5596 5594 5592 5591 5589 5587 5584 5582 5579 5577 5575 5574 5573 5570 5568 5566 5564 5561 5560 5557 5555 5553
5628 5626 5625 5623 5622 5621 5619 5617 5616 5614 5612 5611 5609 5607 5604 5602 5599 5596 5593 5591 5588 5585 5583 5581 5579 5576 5574 5571 5569 5566 5563 5561 5560 5558 5556 5554 5551 5549 5546 5543 5541 5538 5536
5619 5617 5615 5613 5612 5611 5609 5608 5606 5604 5602 5601 5599 5597 5594 5592 5589 5587 5584 5581 5578 5575 5572 5570 5567 5564 5561 5558 5555 5553 5550 5548 5546 5543 5540 5540 5537 5534 5531 5527 5524 5521 5519
5609 5607 5606 5604 5603 5601 5599 5598 5596 5594 5592 5591 5589 5587 5584 5582 5580 5577 5574 5571 5568 5565 5561 5558 5555 5552 5548 5545 5542 5539 5537 5534 5533 5529 5526 5524 5522 5519 5516 5512 5508 5504 5501
5599 5598 5596 5594 5593 5592 5590 5588 5586 5585 5583 5581 5579 5577 5575 5572 5570 5567 5564 5561 5558 5555 5551 5548 5544 5540 5536 5533 5530 5527 5524 5521 5519 5516 5512 5510 5506 5503 5502 5499 5493 5488 5485